�N����,����,�~����,�C��,���x,�C��,����,���ϕ���,�ő�u�ԕ���,�ő厞����,���˗�,�I�_���x,�n�����x,�ő啗���N��,DTYPE
"17/07/26","00:10",0.0,25.7,94.8,998.4,321.5,0.3,0.8,347.8,0.00,24.8,26.0,"00:01:04",1
"17/07/26","00:20",0.0,25.7,94.7,998.2,1.6,0.3,1.4,345.0,0.00,24.8,25.9,"00:15:28",1
"17/07/26","00:30",0.0,25.7,94.7,998.6,285.7,0.3,0.9,333.0,0.00,24.8,25.9,"00:24:00",1
"17/07/26","00:40",0.0,25.6,94.8,997.9,26.4,0.1,0.9,333.4,0.00,24.7,25.7,"00:39:28",1
"17/07/26","00:50",0.0,25.6,94.8,998.2,312.7,0.5,0.8,340.0,0.00,24.7,26.0,"00:41:12",1
"17/07/26","01:00",0.0,25.6,94.9,998.4,333.8,0.3,1.2,351.0,0.00,24.8,25.7,"00:50:48",1
"17/07/26","01:10",0.0,25.6,94.9,998.2,310.8,0.3,1.2,341.6,0.00,24.8,25.9,"01:08:40",1
"17/07/26","01:20",0.0,25.6,94.9,998.4,344.5,0.7,1.4,342.8,0.00,24.8,25.8,"01:19:20",1
"17/07/26","01:30",0.0,25.5,95.0,997.9,305.0,0.7,1.6,347.5,0.00,24.7,26.0,"01:21:12",1
"17/07/26","01:40",0.0,25.5,94.9,998.2,331.7,1.1,2.9,348.9,0.00,24.7,25.8,"01:38:16",1
"17/07/26","01:50",0.0,25.6,94.9,998.2,303.8,0.7,2.2,325.0,0.00,24.8,25.7,"01:40:48",1
"17/07/26","02:00",0.0,25.5,94.9,998.2,309.2,0.5,1.3,327.9,0.00,24.7,25.7,"01:53:36",1
"17/07/26","02:10",0.0,25.5,95.0,998.4,297.9,0.7,2.4,31.7,0.00,24.7,25.8,"02:07:04",1
"17/07/26","02:20",0.0,25.6,95.0,997.9,314.7,0.5,1.2,331.0,0.00,24.8,25.9,"02:13:04",1
"17/07/26","02:30",0.0,25.5,95.0,998.2,333.0,0.7,1.2,329.1,0.00,24.7,25.8,"02:25:28",1
"17/07/26","02:40",0.0,25.5,95.0,998.2,333.8,1.2,2.7,333.5,0.00,24.7,25.7,"02:39:28",1
"17/07/26","02:50",0.0,25.5,95.0,997.9,338.1,1.3,2.6,335.8,0.00,24.7,25.7,"02:46:56",1
"17/07/26","03:00",0.0,25.5,94.9,997.7,334.1,1.2,2.4,322.7,0.00,24.7,25.8,"02:50:02",1
"17/07/26","03:10",0.0,25.4,94.9,997.7,330.7,1.8,3.6,339.7,0.00,24.6,25.7,"03:04:08",1
"17/07/26","03:20",0.0,25.5,94.8,997.9,330.9,1.5,3.6,345.3,0.00,24.6,25.6,"03:12:16",1
"17/07/26","03:30",0.0,25.4,94.8,998.2,303.3,0.8,1.4,327.7,0.00,24.5,25.9,"03:22:16",1
"17/07/26","03:40",0.0,25.4,94.7,997.9,273.0,0.8,1.8,251.2,0.00,24.5,25.7,"03:31:44",1
"17/07/26","03:50",0.0,25.3,94.7,998.4,325.3,0.8,1.9,344.0,0.00,24.4,25.9,"03:47:52",1
"17/07/26","04:00",0.0,25.3,94.6,998.4,357.9,0.8,1.7,331.5,0.00,24.4,25.6,"03:52:08",1
"17/07/26","04:10",0.0,25.3,94.6,998.4,348.7,1.0,2.2,339.9,0.00,24.4,25.4,"04:06:40",1
"17/07/26","04:20",0.0,25.2,94.5,998.4,322.0,0.7,1.8,339.3,0.00,24.3,25.6,"04:12:48",1
"17/07/26","04:30",0.0,25.2,94.6,998.6,320.4,0.8,1.8,348.6,0.00,24.3,25.8,"04:21:28",1
"17/07/26","04:40",0.0,25.2,94.5,998.2,337.8,1.1,2.2,331.9,0.00,24.3,25.7,"04:30:02",1
"17/07/26","04:50",0.0,25.2,94.4,998.4,329.9,1.2,2.2,332.5,0.00,24.3,25.7,"04:40:16",1
"17/07/26","05:00",0.0,25.2,94.2,998.6,318.3,1.6,3.2,324.6,0.00,24.2,25.6,"04:56:08",1
"17/07/26","05:10",0.0,25.2,94.2,998.2,332.2,0.8,2.1,335.3,0.00,24.2,25.7,"05:04:00",1
"17/07/26","05:20",0.0,25.2,94.2,998.6,358.8,0.6,1.2,355.3,0.00,24.2,25.6,"05:13:12",1
"17/07/26","05:30",0.0,25.1,94.2,998.9,352.1,1.1,1.9,338.9,0.00,24.1,25.6,"05:20:48",1
"17/07/26","05:40",0.0,25.0,94.1,999.1,323.9,1.7,3.2,338.2,0.00,24.0,25.5,"05:35:44",1
"17/07/26","05:50",0.0,25.1,94.2,998.6,350.4,0.7,1.8,355.5,0.00,24.1,25.6,"05:40:48",1
"17/07/26","06:00",0.0,25.1,93.9,999.1,3.3,0.7,1.4,354.2,0.00,24.1,25.5,"05:59:36",1
"17/07/26","06:10",0.0,25.2,94.0,999.1,348.3,1.0,1.9,311.3,0.00,24.2,25.7,"06:08:16",1
"17/07/26","06:20",0.0,25.3,93.9,998.9,332.2,0.6,1.1,333.3,0.01,24.3,25.6,"06:18:16",1
"17/07/26","06:30",0.0,25.7,93.5,999.1,292.2,0.7,1.6,323.0,0.02,24.6,25.5,"06:24:24",1
"17/07/26","06:40",0.0,26.4,92.2,999.1,324.4,0.8,1.9,341.9,0.05,25.1,25.5,"06:39:52",1
"17/07/26","06:50",0.0,27.2,87.0,999.3,331.3,0.8,2.4,343.2,0.09,24.9,25.6,"06:41:12",1
"17/07/26","07:00",0.0,27.8,82.0,998.9,354.9,1.0,1.7,326.4,0.12,24.5,25.8,"06:57:52",1
"17/07/26","07:10",0.0,27.4,82.2,999.1,347.9,1.5,3.2,336.7,0.12,24.1,25.4,"07:05:20",1
"17/07/26","07:20",0.0,27.4,81.8,999.6,355.2,1.8,5.5,343.1,0.07,24.1,25.4,"07:17:20",1
"17/07/26","07:30",0.0,26.8,84.5,999.8,329.2,1.7,4.1,344.7,0.09,24.0,25.5,"07:20:32",1
"17/07/26","07:40",0.0,27.5,84.0,999.6,296.3,1.5,3.7,337.0,0.17,24.6,25.7,"07:32:40",1
"17/07/26","07:50",0.0,27.5,82.3,999.8,319.9,1.7,3.3,327.5,0.19,24.3,25.6,"07:47:12",1
"17/07/26","08:00",0.0,27.6,81.6,999.8,312.7,2.0,4.7,337.5,0.25,24.2,25.7,"07:52:40",1
"17/07/26","08:10",0.0,27.2,81.5,999.8,314.4,1.7,3.7,340.6,0.18,23.8,25.7,"08:06:08",1
"17/07/26","08:20",0.0,27.3,81.8,999.8,301.0,1.5,2.8,247.5,0.21,24.0,26.1,"08:18:08",1
"17/07/26","08:30",0.0,27.0,80.7,999.6,325.0,1.8,3.3,345.1,0.19,23.4,25.8,"08:24:32",1
"17/07/26","08:40",0.0,26.9,82.1,999.8,327.9,2.2,3.7,336.0,0.15,23.6,25.8,"08:36:08",1
"17/07/26","08:50",0.0,26.5,81.5,1000.0,331.4,3.9,7.0,336.5,0.12,23.1,26.0,"08:42:00",1
"17/07/26","09:00",0.0,27.3,80.5,999.8,322.1,3.0,6.2,334.7,0.21,23.7,26.2,"08:56:40",1
"17/07/26","09:10",0.0,27.3,77.8,999.6,331.3,2.6,6.0,344.6,0.19,23.1,26.0,"09:09:44",1
"17/07/26","09:20",0.0,27.2,78.4,1000.0,330.5,3.1,6.0,335.0,0.20,23.2,26.1,"09:12:00",1
"17/07/26","09:30",0.0,28.0,77.8,999.8,332.8,1.3,3.6,347.7,0.21,23.8,26.1,"09:20:08",1
"17/07/26","09:40",0.0,28.1,76.7,999.3,310.9,1.5,4.2,335.5,0.24,23.7,26.1,"09:31:12",1
"17/07/26","09:50",0.0,28.9,75.8,999.3,339.1,1.7,3.7,335.7,0.37,24.2,26.1,"09:42:40",1
"17/07/26","10:00",0.0,28.6,74.7,999.8,334.7,1.7,4.2,322.9,0.33,23.7,26.3,"09:52:40",1
"17/07/26","10:10",0.0,28.5,74.4,999.6,328.7,1.8,4.8,345.2,0.30,23.5,26.4,"10:06:32",1
"17/07/26","10:20",0.0,29.2,72.0,999.8,330.6,2.5,4.9,327.2,0.42,23.7,26.6,"10:18:32",1
"17/07/26","10:30",0.0,28.0,74.7,999.8,332.2,2.7,5.6,338.5,0.29,23.1,26.9,"10:26:24",1
"17/07/26","10:40",0.0,28.0,75.0,999.6,341.2,3.9,7.2,346.5,0.37,23.2,26.6,"10:37:12",1
"17/07/26","10:50",0.0,28.9,73.6,999.6,341.1,3.2,8.0,317.1,0.46,23.7,26.8,"10:46:08",1
"17/07/26","11:00",0.0,28.6,73.0,999.6,340.5,3.6,6.6,318.7,0.45,23.3,26.9,"10:55:04",1
"17/07/26","11:10",0.0,29.3,71.8,1000.0,340.4,3.4,6.6,338.3,0.58,23.7,26.9,"11:08:16",1
"17/07/26","11:20",0.0,29.2,71.2,999.8,347.0,3.9,8.1,344.3,0.55,23.5,27.2,"11:15:52",1
"17/07/26","11:30",0.0,28.0,74.0,999.8,344.7,3.5,7.9,322.4,0.27,23.0,26.9,"11:20:56",1
"17/07/26","11:40",0.0,28.2,74.1,999.8,348.4,3.2,6.3,346.3,0.30,23.2,27.2,"11:39:20",1
"17/07/26","11:50",0.0,28.8,72.0,999.6,342.0,3.0,6.0,338.5,0.45,23.3,27.1,"11:43:52",1
"17/07/26","12:00",0.0,29.1,71.3,999.3,340.5,2.7,5.9,322.4,0.48,23.4,27.3,"11:54:00",1
"17/07/26","12:10",0.0,29.4,68.6,999.6,351.4,2.7,7.2,341.1,0.59,23.1,27.4,"12:09:48",1
"17/07/26","12:20",0.0,29.2,67.5,999.8,347.4,3.0,6.8,329.7,0.52,22.6,27.6,"12:17:04",1
"17/07/26","12:30",0.0,29.7,69.6,999.8,348.8,2.5,6.0,346.2,0.48,23.6,27.5,"12:21:04",1
"17/07/26","12:40",0.0,30.3,65.2,999.6,347.9,2.6,5.4,356.8,0.57,23.1,27.5,"12:38:40",1
"17/07/26","12:50",0.0,30.5,65.8,999.8,340.0,2.7,6.0,339.1,0.57,23.4,27.9,"12:46:32",1
"17/07/26","13:00",0.0,30.6,64.9,999.8,346.7,2.6,5.9,329.4,0.57,23.3,27.9,"12:59:52",1
"17/07/26","13:10",0.0,30.5,65.3,999.8,347.1,3.0,6.3,344.0,0.57,23.3,27.9,"13:01:44",1
"17/07/26","13:20",0.0,30.6,65.8,999.6,340.0,3.1,5.9,351.8,0.57,23.5,28.2,"13:11:04",1
"17/07/26","13:30",0.0,29.9,67.4,999.8,347.7,3.0,7.1,341.1,0.43,23.2,28.2,"13:23:44",1
"17/07/26","13:40",0.0,30.4,64.9,999.6,347.1,3.1,5.7,349.4,0.60,23.1,28.2,"13:35:52",1
"17/07/26","13:50",0.0,29.8,66.9,999.6,346.3,3.1,5.8,344.9,0.39,23.0,28.1,"13:47:20",1
"17/07/26","14:00",0.0,30.5,65.3,999.3,341.2,2.8,5.5,345.3,0.45,23.3,27.9,"13:55:44",1
"17/07/26","14:10",0.0,30.7,62.8,999.3,344.0,3.1,7.0,345.3,0.55,22.8,28.1,"14:07:44",1
"17/07/26","14:20",0.0,30.8,60.9,999.6,338.9,2.8,6.2,349.5,0.52,22.4,28.1,"14:16:16",1
"17/07/26","14:30",0.0,31.3,60.7,999.3,339.6,2.6,5.5,341.7,0.50,22.8,28.3,"14:26:00",1
"17/07/26","14:40",0.0,31.4,60.1,999.6,333.2,2.6,5.6,337.8,0.49,22.8,28.2,"14:38:16",1
"17/07/26","14:50",0.0,31.5,60.6,999.8,347.0,2.5,5.1,339.6,0.47,23.0,28.2,"14:48:08",1
"17/07/26","15:00",0.0,31.4,59.3,999.3,347.4,2.6,5.1,337.7,0.45,22.5,28.5,"14:50:32",1
"17/07/26","15:10",0.0,31.2,59.6,999.1,339.8,3.1,5.6,330.4,0.44,22.4,28.3,"15:07:28",1
"17/07/26","15:20",0.0,31.3,58.3,999.3,343.7,3.0,6.3,358.4,0.42,22.2,28.7,"15:17:44",1
"17/07/26","15:30",0.0,31.3,56.0,999.3,345.3,3.0,6.0,342.0,0.40,21.5,28.7,"15:21:12",1
"17/07/26","15:40",0.0,31.4,59.1,999.3,350.7,2.3,5.1,342.1,0.38,22.5,28.7,"15:37:20",1
"17/07/26","15:50",0.0,31.1,58.5,999.3,345.1,2.7,6.3,346.6,0.37,22.0,28.9,"15:43:36",1
"17/07/26","16:00",0.0,31.4,57.1,999.1,351.2,2.5,5.5,346.8,0.35,21.9,28.7,"15:59:36",1
"17/07/26","16:10",0.0,31.4,56.1,999.1,348.2,3.4,5.9,348.3,0.33,21.6,28.7,"16:02:24",1
"17/07/26","16:20",0.0,31.2,57.1,998.9,341.0,3.0,5.8,324.9,0.31,21.7,28.7,"16:10:40",1
"17/07/26","16:30",0.0,31.1,56.9,998.9,342.6,3.2,7.5,340.2,0.28,21.6,28.6,"16:25:28",1
"17/07/26","16:40",0.0,30.7,56.6,998.9,343.7,3.5,6.8,327.7,0.26,21.1,28.8,"16:35:36",1
"17/07/26","16:50",0.0,30.7,57.8,998.6,347.3,3.0,6.7,356.9,0.24,21.5,28.6,"16:46:56",1
"17/07/26","17:00",0.0,30.7,58.3,998.9,349.8,2.7,5.4,342.0,0.21,21.6,28.6,"16:54:56",1
"17/07/26","17:10",0.0,30.3,58.0,998.6,349.7,3.2,6.0,34.2,0.19,21.2,28.5,"17:02:32",1
"17/07/26","17:20",0.0,30.0,59.0,998.4,343.8,3.1,8.2,337.0,0.17,21.2,28.7,"17:13:20",1
"17/07/26","17:30",0.0,29.7,60.3,998.4,342.9,3.1,6.3,354.8,0.14,21.2,28.5,"17:27:04",1
"17/07/26","17:40",0.0,29.6,60.9,998.6,345.6,2.7,7.5,337.8,0.06,21.3,28.5,"17:31:20",1
"17/07/26","17:50",0.0,29.4,61.4,998.6,347.3,2.3,6.2,319.9,0.01,21.2,28.2,"17:46:16",1
"17/07/26","18:00",0.0,29.0,63.4,998.6,339.1,2.6,5.8,339.0,0.00,21.4,28.1,"17:57:52",1
"17/07/26","18:10",0.0,28.7,63.8,998.4,341.6,2.6,6.6,334.4,0.00,21.2,28.2,"18:04:08",1
"17/07/26","18:20",0.0,28.5,64.8,998.4,344.0,2.1,4.4,333.3,0.00,21.3,28.0,"18:12:24",1
"17/07/26","18:30",0.0,28.2,65.5,998.9,342.2,1.8,3.7,333.5,0.00,21.2,27.8,"18:20:24",1
"17/07/26","18:40",0.0,27.7,67.8,999.1,342.6,2.3,5.0,347.2,0.00,21.2,27.5,"18:33:04",1
"17/07/26","18:50",0.0,27.1,69.0,998.9,348.0,2.2,4.8,318.8,0.00,21.0,27.6,"18:41:36",1
"17/07/26","19:00",0.0,26.9,70.1,999.6,346.9,2.2,4.2,341.5,0.00,21.0,27.7,"18:55:04",1
"17/07/26","19:10",0.0,26.6,71.1,999.6,340.4,2.6,4.2,344.4,0.00,21.0,27.5,"19:08:16",1
"17/07/26","19:20",0.0,26.5,71.9,999.6,337.6,2.0,4.0,347.8,0.00,21.1,27.4,"19:16:00",1
"17/07/26","19:30",0.0,26.3,72.8,999.8,335.5,1.8,3.9,352.6,0.00,21.1,27.3,"19:25:04",1
"17/07/26","19:40",0.0,26.1,73.5,1000.0,340.4,2.0,4.5,343.2,0.00,21.0,27.2,"19:31:36",1
"17/07/26","19:50",0.0,26.0,74.1,1000.0,334.4,2.2,4.3,354.6,0.00,21.1,27.2,"19:48:16",1
"17/07/26","20:00",0.0,25.9,74.4,999.8,327.7,2.2,4.5,353.5,0.00,21.0,27.0,"19:51:12",1
"17/07/26","20:10",0.0,25.8,74.9,1000.0,329.3,2.3,4.2,339.9,0.00,21.1,27.1,"20:00:02",1
"17/07/26","20:20",0.0,25.8,75.1,1000.5,327.7,2.3,4.9,350.2,0.00,21.1,27.0,"20:13:36",1
"17/07/26","20:30",0.0,25.7,75.7,1000.5,318.2,1.6,2.8,355.1,0.00,21.1,26.9,"20:24:16",1
"17/07/26","20:40",0.0,25.6,76.0,1000.5,336.7,1.7,3.6,326.7,0.00,21.1,26.9,"20:36:40",1
"17/07/26","20:50",0.0,25.4,76.5,1000.5,319.8,1.2,2.9,342.1,0.00,21.0,26.8,"20:46:32",1
"17/07/26","21:00",0.0,25.3,76.9,1001.2,324.2,1.2,2.4,353.3,0.00,21.0,26.5,"20:52:48",1
"17/07/26","21:10",0.0,25.3,77.0,1001.0,330.2,1.2,2.9,354.2,0.00,21.0,26.6,"21:01:52",1
"17/07/26","21:20",0.0,25.1,77.4,1001.0,320.7,0.7,2.2,342.7,0.00,20.9,26.5,"21:15:44",1
"17/07/26","21:30",0.0,25.1,77.8,1001.2,305.2,0.7,2.7,318.8,0.00,21.0,26.5,"21:25:28",1
"17/07/26","21:40",0.0,25.0,77.8,1001.5,302.2,0.7,3.3,29.1,0.00,20.9,26.2,"21:31:36",1
"17/07/26","21:50",0.0,24.9,78.9,1001.5,278.4,0.5,1.1,244.2,0.00,21.0,26.2,"21:40:08",1
"17/07/26","22:00",0.0,24.6,79.7,1001.2,282.3,0.8,1.3,318.1,0.00,20.9,26.1,"21:56:08",1
"17/07/26","22:10",0.0,24.6,80.3,1001.5,272.3,1.0,1.6,234.9,0.00,21.0,26.1,"22:03:52",1
"17/07/26","22:20",0.0,24.4,81.4,1001.5,268.6,0.8,1.8,223.7,0.00,21.0,26.1,"22:13:28",1
"17/07/26","22:30",0.0,24.2,81.5,1001.7,286.5,0.8,1.3,280.3,0.00,20.9,26.0,"22:24:32",1
"17/07/26","22:40",0.0,24.1,82.1,1001.5,309.2,1.2,1.7,305.9,0.00,20.9,25.8,"22:38:40",1
"17/07/26","22:50",0.0,24.0,82.9,1001.7,320.0,1.6,2.0,339.4,0.00,21.0,25.8,"22:44:48",1
"17/07/26","23:00",0.0,24.0,83.6,1001.7,328.4,1.5,2.6,328.2,0.00,21.1,25.8,"22:52:56",1
"17/07/26","23:10",0.0,23.9,84.1,1001.7,332.2,2.0,3.6,329.3,0.00,21.1,25.9,"23:00:02",1
"17/07/26","23:20",0.0,23.9,84.3,1001.9,328.7,1.8,3.1,337.2,0.00,21.1,25.7,"23:13:28",1
"17/07/26","23:30",0.0,23.9,84.3,1001.7,328.7,2.0,3.2,343.1,0.00,21.1,25.8,"23:24:32",1
"17/07/26","23:40",0.0,23.8,84.7,1001.9,334.5,1.7,2.9,337.0,0.00,21.1,25.6,"23:37:28",1
"17/07/26","23:50",0.0,23.8,85.2,1001.7,336.4,2.2,4.2,321.3,0.00,21.2,25.7,"23:46:16",1
"17/07/26","24:00",0.0,23.7,85.2,1001.9,327.3,2.0,3.5,323.1,0.00,21.1,25.5,"23:57:20",1
